Tracking 29487 objects as of 10-Sep-2024
HD Live streaming from Space Station
objects crossing your sky now

MEZNSAT

Track MEZNSAT now!
10-day predictions
MEZNSAT is classified as:


NORAD ID: 46489
Int'l Code: 2020-068D
Perigee: 467.0 km
Apogee: 480.5 km
Inclination: 97.8 °
Period: 93.9 minutes
Semi major axis: 6844 km
RCS: Unknown
Launch date: September 28, 2020
Source: (UNK)
Launch site: PLESETSK MISSILE AND SPACE COMPLEX (PKMTR)

Uplink (MHz):
Downlink (MHz): 436.600
Beacon (MHz):
Mode: 1k2-9k6* BPSK
Call sign: A68MZ
Status: Active

Your satellite tracking list
Your tracking list is empty




NASA's NSSDC Master Catalog

Two Line Element Set (TLE):
1 46489U 20068D   24253.92415028  .00062629  00000-0  19460-2 0  9991
2 46489  97.8166 224.0863 0009849  24.2921 335.8782 15.33075395217721
Source of the keplerian elements: AFSPC